contact:dominique.lefevre@mio.osupytheas.fr, maurice.libes@osupytheas.fr, didier.mallarino@osupytheas.fr
Project:EMSO http://www.emso-fr.org/EMSO-France
Depth: 2436.0 m
Title:EMSO Ligure Ouest : Data MII capteur MICROCAT
DateTime_Computer,Latitude,Longitude,Temperature,Conductivity,Pressure,DateTime_Instrument
DateTime_Computer,Latitude,Longitude,degC,S m-1,dbar,DateTime_Instrument
2022-02-24T00:00:27Z,42.805,6.029,13.3018,4.60055,2470.553,2022-2-24T02:02:01Z
2022-02-24T00:03:30Z,42.805,6.029,13.3008,4.60051,2470.53,2022-2-24T02:05:04Z
2022-02-24T00:06:33Z,42.805,6.029,13.3019,4.60070,2470.567,2022-2-24T02:08:07Z
2022-02-24T00:09:36Z,42.805,6.029,13.3026,4.60066,2470.53,2022-2-24T02:11:11Z
2022-02-24T00:12:39Z,42.805,6.029,13.3022,4.60067,2470.567,2022-2-24T02:14:14Z
2022-02-24T00:15:42Z,42.805,6.029,13.3021,4.60064,2470.53,2022-2-24T02:17:17Z
2022-02-24T00:18:46Z,42.805,6.029,13.3012,4.60050,2470.544,2022-2-24T02:20:20Z
2022-02-24T00:21:49Z,42.805,6.029,13.3024,4.60060,2470.53,2022-2-24T02:23:23Z
2022-02-24T00:24:52Z,42.805,6.029,13.3012,4.60063,2470.544,2022-2-24T02:26:26Z
2022-02-24T00:27:55Z,42.805,6.029,13.3019,4.60068,2470.553,2022-2-24T02:29:29Z
2022-02-24T00:30:58Z,42.805,6.029,13.3009,4.60062,2470.544,2022-2-24T02:32:32Z
2022-02-24T00:34:01Z,42.805,6.029,13.3024,4.60058,2470.53,2022-2-24T02:35:36Z
2022-02-24T00:37:04Z,42.805,6.029,13.3016,4.60074,2470.553,2022-2-24T02:38:39Z
2022-02-24T00:40:07Z,42.805,6.029,13.3019,4.60057,2470.53,2022-2-24T02:41:42Z
2022-02-24T00:43:11Z,42.805,6.029,13.3019,4.60074,2470.553,2022-2-24T02:44:45Z
2022-02-24T00:46:14Z,42.805,6.029,13.3013,4.60069,2470.567,2022-2-24T02:47:48Z
2022-02-24T00:49:17Z,42.805,6.029,13.3010,4.60055,2470.567,2022-2-24T02:50:51Z
2022-02-24T00:52:20Z,42.805,6.029,13.3018,4.60079,2470.591,2022-2-24T02:53:54Z
2022-02-24T00:55:23Z,42.805,6.029,13.3015,4.60072,2470.553,2022-2-24T02:56:57Z
2022-02-24T00:58:26Z,42.805,6.029,13.3015,4.60064,2470.53,2022-2-24T03:00:01Z
2022-02-24T01:01:29Z,42.805,6.029,13.3015,4.60060,2470.53,2022-2-24T03:03:04Z
2022-02-24T01:04:32Z,42.805,6.029,13.3014,4.60069,2470.53,2022-2-24T03:06:07Z
2022-02-24T01:07:36Z,42.805,6.029,13.3014,4.60074,2470.507,2022-2-24T03:09:10Z
2022-02-24T01:10:39Z,42.805,6.029,13.3014,4.60067,2470.553,2022-2-24T03:12:13Z
2022-02-24T01:13:42Z,42.805,6.029,13.3016,4.60053,2470.53,2022-2-24T03:15:16Z
2022-02-24T01:16:45Z,42.805,6.029,13.3019,4.60074,2470.553,2022-2-24T03:18:19Z
2022-02-24T01:19:48Z,42.805,6.029,13.3026,4.60077,2470.53,2022-2-24T03:21:22Z
2022-02-24T01:22:51Z,42.805,6.029,13.3016,4.60079,2470.567,2022-2-24T03:24:25Z
2022-02-24T01:25:54Z,42.805,6.029,13.3019,4.60053,2470.553,2022-2-24T03:27:29Z
2022-02-24T01:28:57Z,42.805,6.029,13.3006,4.60051,2470.539,2022-2-24T03:30:32Z
2022-02-24T01:32:01Z,42.805,6.029,13.3020,4.60077,2470.567,2022-2-24T03:33:35Z
2022-02-24T01:35:04Z,42.805,6.029,13.3024,4.60076,2470.553,2022-2-24T03:36:38Z
2022-02-24T01:38:07Z,42.805,6.029,13.3021,4.60067,2470.591,2022-2-24T03:39:41Z
2022-02-24T01:41:10Z,42.805,6.029,13.3023,4.60062,2470.53,2022-2-24T03:42:44Z
2022-02-24T01:44:13Z,42.805,6.029,13.3011,4.60067,2470.507,2022-2-24T03:45:47Z
2022-02-24T01:47:16Z,42.805,6.029,13.3013,4.60069,2470.567,2022-2-24T03:48:50Z
2022-02-24T01:50:19Z,42.805,6.029,13.3025,4.60089,2470.53,2022-2-24T03:51:54Z
2022-02-24T01:53:22Z,42.805,6.029,13.3023,4.60062,2470.53,2022-2-24T03:54:57Z
2022-02-24T01:56:26Z,42.805,6.029,13.3024,4.60079,2470.567,2022-2-24T03:58:00Z
2022-02-24T01:59:29Z,42.805,6.029,13.3019,4.60079,2470.553,2022-2-24T04:01:03Z
2022-02-24T02:02:32Z,42.805,6.029,13.3018,4.60077,2470.553,2022-2-24T04:04:06Z
2022-02-24T02:05:35Z,42.805,6.029,13.3022,4.60082,2470.507,2022-2-24T04:07:09Z
2022-02-24T02:08:38Z,42.805,6.029,13.3018,4.60074,2470.553,2022-2-24T04:10:12Z
2022-02-24T02:11:41Z,42.805,6.029,13.3014,4.60081,2470.591,2022-2-24T04:13:15Z
2022-02-24T02:14:44Z,42.805,6.029,13.3016,4.60073,2470.553,2022-2-24T04:16:19Z
2022-02-24T02:17:47Z,42.805,6.029,13.3029,4.60073,2470.553,2022-2-24T04:19:22Z
2022-02-24T02:20:51Z,42.805,6.029,13.3010,4.60073,2470.544,2022-2-24T04:22:25Z
2022-02-24T02:23:54Z,42.805,6.029,13.3018,4.60084,2470.53,2022-2-24T04:25:28Z
2022-02-24T02:26:57Z,42.805,6.029,13.3026,4.60074,2470.567,2022-2-24T04:28:31Z
2022-02-24T02:30:00Z,42.805,6.029,13.3016,4.60072,2470.544,2022-2-24T04:31:34Z
2022-02-24T02:33:03Z,42.805,6.029,13.3019,4.60079,2470.553,2022-2-24T04:34:37Z
2022-02-24T02:36:06Z,42.805,6.029,13.3023,4.60067,2470.567,2022-2-24T04:37:40Z
2022-02-24T02:39:09Z,42.805,6.029,13.3019,4.60077,2470.553,2022-2-24T04:40:44Z
2022-02-24T02:42:12Z,42.805,6.029,13.3020,4.60075,2470.507,2022-2-24T04:43:47Z
2022-02-24T02:45:15Z,42.805,6.029,13.3014,4.60085,2470.53,2022-2-24T04:46:50Z
2022-02-24T02:48:19Z,42.805,6.029,13.3030,4.60096,2470.544,2022-2-24T04:49:53Z
2022-02-24T02:51:22Z,42.805,6.029,13.3026,4.60091,2470.53,2022-2-24T04:52:56Z
2022-02-24T02:54:25Z,42.805,6.029,13.3023,4.60087,2470.553,2022-2-24T04:55:59Z
2022-02-24T02:57:28Z,42.805,6.029,13.3022,4.60068,2470.544,2022-2-24T04:59:02Z
2022-02-24T03:00:31Z,42.805,6.029,13.3015,4.60069,2470.53,2022-2-24T05:02:05Z
2022-02-24T03:03:34Z,42.805,6.029,13.3020,4.60069,2470.544,2022-2-24T05:05:09Z
2022-02-24T03:06:37Z,42.805,6.029,13.3027,4.60095,2470.553,2022-2-24T05:08:12Z
2022-02-24T03:09:40Z,42.805,6.029,13.3022,4.60092,2470.553,2022-2-24T05:11:15Z
2022-02-24T03:12:44Z,42.805,6.029,13.3024,4.60093,2470.553,2022-2-24T05:14:18Z
2022-02-24T03:15:47Z,42.805,6.029,13.3034,4.60088,2470.591,2022-2-24T05:17:21Z
2022-02-24T03:18:50Z,42.805,6.029,13.3019,4.60075,2470.567,2022-2-24T05:20:24Z
2022-02-24T03:21:53Z,42.805,6.029,13.3018,4.60079,2470.553,2022-2-24T05:23:27Z
2022-02-24T03:24:56Z,42.805,6.029,13.3029,4.60102,2470.53,2022-2-24T05:26:30Z
2022-02-24T03:27:59Z,42.805,6.029,13.3023,4.60088,2470.567,2022-2-24T05:29:34Z
2022-02-24T03:31:02Z,42.805,6.029,13.3025,4.60072,2470.53,2022-2-24T05:32:37Z
2022-02-24T03:34:05Z,42.805,6.029,13.3029,4.60088,2470.553,2022-2-24T05:35:40Z
2022-02-24T03:37:09Z,42.805,6.029,13.3016,4.60077,2470.553,2022-2-24T05:38:43Z
2022-02-24T03:40:12Z,42.805,6.029,13.3014,4.60079,2470.567,2022-2-24T05:41:46Z
2022-02-24T03:43:15Z,42.805,6.029,13.3014,4.60087,2470.553,2022-2-24T05:44:49Z
2022-02-24T03:46:18Z,42.805,6.029,13.3023,4.60084,2470.553,2022-2-24T05:47:52Z
2022-02-24T03:49:21Z,42.805,6.029,13.3021,4.60074,2470.577,2022-2-24T05:50:55Z
2022-02-24T03:52:24Z,42.805,6.029,13.3031,4.60075,2470.577,2022-2-24T05:53:59Z
2022-02-24T03:55:27Z,42.805,6.029,13.3020,4.60088,2470.567,2022-2-24T05:57:02Z
2022-02-24T03:58:30Z,42.805,6.029,13.3017,4.60062,2470.507,2022-2-24T06:00:05Z
2022-02-24T04:01:34Z,42.805,6.029,13.3032,4.60074,2470.553,2022-2-24T06:03:08Z
2022-02-24T04:04:37Z,42.805,6.029,13.3025,4.60084,2470.553,2022-2-24T06:06:11Z
2022-02-24T04:07:40Z,42.805,6.029,13.3025,4.60097,2470.53,2022-2-24T06:09:14Z
2022-02-24T04:10:43Z,42.805,6.029,13.3034,4.60084,2470.577,2022-2-24T06:12:17Z
2022-02-24T04:13:46Z,42.805,6.029,13.3021,4.60072,2470.553,2022-2-24T06:15:20Z
2022-02-24T04:16:49Z,42.805,6.029,13.3037,4.60081,2470.553,2022-2-24T06:18:23Z
2022-02-24T04:19:52Z,42.805,6.029,13.3034,4.60095,2470.553,2022-2-24T06:21:27Z
2022-02-24T04:22:55Z,42.805,6.029,13.3030,4.60106,2470.553,2022-2-24T06:24:30Z
2022-02-24T04:25:59Z,42.805,6.029,13.3026,4.60090,2470.53,2022-2-24T06:27:33Z
2022-02-24T04:29:02Z,42.805,6.029,13.3019,4.60088,2470.53,2022-2-24T06:30:36Z
2022-02-24T04:32:05Z,42.805,6.029,13.3039,4.60070,2470.53,2022-2-24T06:33:39Z
2022-02-24T04:35:08Z,42.805,6.029,13.3041,4.60075,2470.567,2022-2-24T06:36:42Z
2022-02-24T04:38:11Z,42.805,6.029,13.3022,4.60081,2470.544,2022-2-24T06:39:45Z
2022-02-24T04:41:14Z,42.805,6.029,13.3026,4.60064,2470.544,2022-2-24T06:42:48Z
2022-02-24T04:44:17Z,42.805,6.029,13.3024,4.60082,2470.52,2022-2-24T06:45:52Z
2022-02-24T04:47:20Z,42.805,6.029,13.3014,4.60088,2470.53,2022-2-24T06:48:55Z
2022-02-24T04:50:24Z,42.805,6.029,13.3026,4.60087,2470.53,2022-2-24T06:51:58Z
2022-02-24T04:53:27Z,42.805,6.029,13.3034,4.60081,2470.577,2022-2-24T06:55:01Z
2022-02-24T04:56:30Z,42.805,6.029,13.3026,4.60086,2470.553,2022-2-24T06:58:04Z
2022-02-24T04:59:33Z,42.805,6.029,13.3015,4.60069,2470.53,2022-2-24T07:01:07Z
2022-02-24T05:02:36Z,42.805,6.029,13.3011,4.60058,2470.53,2022-2-24T07:04:10Z
2022-02-24T05:05:39Z,42.805,6.029,13.3016,4.60057,2470.53,2022-2-24T07:07:13Z
2022-02-24T05:08:42Z,42.805,6.029,13.3023,4.60082,2470.539,2022-2-24T07:10:17Z
2022-02-24T05:11:45Z,42.805,6.029,13.3019,4.60078,2470.53,2022-2-24T07:13:20Z
2022-02-24T05:14:49Z,42.805,6.029,13.3031,4.60074,2470.53,2022-2-24T07:16:23Z
2022-02-24T05:17:52Z,42.805,6.029,13.3011,4.60055,2470.544,2022-2-24T07:19:26Z
2022-02-24T05:20:55Z,42.805,6.029,13.3035,4.60079,2470.53,2022-2-24T07:22:29Z
2022-02-24T05:23:58Z,42.805,6.029,13.3024,4.60067,2470.544,2022-2-24T07:25:32Z
2022-02-24T05:27:01Z,42.805,6.029,13.3023,4.60097,2470.567,2022-2-24T07:28:35Z
2022-02-24T05:30:04Z,42.805,6.029,13.3028,4.60093,2470.553,2022-2-24T07:31:38Z
2022-02-24T05:33:07Z,42.805,6.029,13.3029,4.60082,2470.591,2022-2-24T07:34:42Z
2022-02-24T05:36:10Z,42.805,6.029,13.3029,4.60093,2470.52,2022-2-24T07:37:45Z
2022-02-24T05:39:14Z,42.805,6.029,13.3016,4.60091,2470.553,2022-2-24T07:40:48Z
2022-02-24T05:42:17Z,42.805,6.029,13.3019,4.60108,2470.553,2022-2-24T07:43:51Z
2022-02-24T05:45:20Z,42.805,6.029,13.3026,4.60076,2470.553,2022-2-24T07:46:54Z
2022-02-24T05:48:23Z,42.805,6.029,13.3032,4.60102,2470.567,2022-2-24T07:49:57Z
2022-02-24T05:51:26Z,42.805,6.029,13.3028,4.60086,2470.507,2022-2-24T07:53:00Z
2022-02-24T05:54:29Z,42.805,6.029,13.3022,4.60093,2470.577,2022-2-24T07:56:03Z
2022-02-24T05:57:32Z,42.805,6.029,13.3026,4.60079,2470.53,2022-2-24T07:59:07Z
2022-02-24T06:00:35Z,42.805,6.029,13.3026,4.60097,2470.507,2022-2-24T08:02:10Z
2022-02-24T06:03:39Z,42.805,6.029,13.3020,4.60093,2470.577,2022-2-24T08:05:13Z
2022-02-24T06:06:42Z,42.805,6.029,13.3024,4.60087,2470.53,2022-2-24T08:08:16Z
2022-02-24T06:09:45Z,42.805,6.029,13.3024,4.60069,2470.544,2022-2-24T08:11:19Z
2022-02-24T06:12:48Z,42.805,6.029,13.3029,4.60092,2470.544,2022-2-24T08:14:22Z
2022-02-24T06:15:51Z,42.805,6.029,13.3018,4.60084,2470.507,2022-2-24T08:17:25Z
2022-02-24T06:18:54Z,42.805,6.029,13.3018,4.60081,2470.53,2022-2-24T08:20:28Z
2022-02-24T06:21:57Z,42.805,6.029,13.3019,4.60085,2470.52,2022-2-24T08:23:32Z
2022-02-24T06:25:00Z,42.805,6.029,13.3023,4.60082,2470.53,2022-2-24T08:26:35Z
2022-02-24T06:28:03Z,42.805,6.029,13.3024,4.60097,2470.544,2022-2-24T08:29:38Z
2022-02-24T06:31:07Z,42.805,6.029,13.3033,4.60064,2470.544,2022-2-24T08:32:41Z
2022-02-24T06:34:10Z,42.805,6.029,13.3034,4.60082,2470.53,2022-2-24T08:35:44Z
2022-02-24T06:37:13Z,42.805,6.029,13.3025,4.60084,2470.567,2022-2-24T08:38:47Z
2022-02-24T06:40:16Z,42.805,6.029,13.3010,4.60086,2470.553,2022-2-24T08:41:50Z
2022-02-24T06:43:19Z,42.805,6.029,13.3010,4.60062,2470.507,2022-2-24T08:44:53Z
2022-02-24T06:46:22Z,42.805,6.029,13.3021,4.60064,2470.53,2022-2-24T08:47:57Z
2022-02-24T06:49:25Z,42.805,6.029,13.3031,4.60083,2470.53,2022-2-24T08:51:00Z
2022-02-24T06:52:28Z,42.805,6.029,13.3026,4.60087,2470.544,2022-2-24T08:54:03Z
2022-02-24T06:55:32Z,42.805,6.029,13.3014,4.60089,2470.544,2022-2-24T08:57:06Z
2022-02-24T06:58:35Z,42.805,6.029,13.3022,4.60061,2470.53,2022-2-24T09:00:09Z
2022-02-24T07:01:38Z,42.805,6.029,13.3020,4.60081,2470.544,2022-2-24T09:03:12Z
2022-02-24T07:04:41Z,42.805,6.029,13.3036,4.60096,2470.53,2022-2-24T09:06:15Z
2022-02-24T07:07:44Z,42.805,6.029,13.3029,4.60106,2470.53,2022-2-24T09:09:18Z
2022-02-24T07:10:47Z,42.805,6.029,13.3019,4.60084,2470.53,2022-2-24T09:12:21Z
2022-02-24T07:13:50Z,42.805,6.029,13.3023,4.60094,2470.544,2022-2-24T09:15:25Z
2022-02-24T07:16:53Z,42.805,6.029,13.3025,4.60090,2470.553,2022-2-24T09:18:28Z
2022-02-24T07:19:57Z,42.805,6.029,13.3016,4.60069,2470.507,2022-2-24T09:21:31Z
2022-02-24T07:23:00Z,42.805,6.029,13.3014,4.60064,2470.544,2022-2-24T09:24:34Z
2022-02-24T07:26:03Z,42.805,6.029,13.3019,4.60087,2470.53,2022-2-24T09:27:37Z
2022-02-24T07:29:06Z,42.805,6.029,13.3024,4.60098,2470.507,2022-2-24T09:30:40Z
2022-02-24T07:32:09Z,42.805,6.029,13.3027,4.60092,2470.53,2022-2-24T09:33:43Z
2022-02-24T07:35:12Z,42.805,6.029,13.3032,4.60088,2470.53,2022-2-24T09:36:46Z
2022-02-24T07:38:15Z,42.805,6.029,13.3021,4.60097,2470.544,2022-2-24T09:39:50Z
2022-02-24T07:41:18Z,42.805,6.029,13.3010,4.60057,2470.544,2022-2-24T09:42:53Z
2022-02-24T07:44:22Z,42.805,6.029,13.3026,4.60079,2470.53,2022-2-24T09:45:56Z
2022-02-24T07:47:25Z,42.805,6.029,13.3024,4.60087,2470.53,2022-2-24T09:48:59Z
2022-02-24T07:50:28Z,42.805,6.029,13.3017,4.60089,2470.53,2022-2-24T09:52:02Z
2022-02-24T07:53:31Z,42.805,6.029,13.3033,4.60065,2470.53,2022-2-24T09:55:05Z
2022-02-24T07:56:34Z,42.805,6.029,13.3025,4.60072,2470.567,2022-2-24T09:58:08Z
2022-02-24T07:59:37Z,42.805,6.029,13.3016,4.60050,2470.544,2022-2-24T10:01:11Z
2022-02-24T08:02:40Z,42.805,6.029,13.3013,4.60058,2470.553,2022-2-24T10:04:15Z
2022-02-24T08:05:43Z,42.805,6.029,13.3029,4.60077,2470.567,2022-2-24T10:07:18Z
2022-02-24T08:08:47Z,42.805,6.029,13.3025,4.60075,2470.53,2022-2-24T10:10:21Z
2022-02-24T08:11:50Z,42.805,6.029,13.3029,4.60073,2470.544,2022-2-24T10:13:24Z
2022-02-24T08:14:53Z,42.805,6.029,13.3011,4.60073,2470.53,2022-2-24T10:16:27Z
2022-02-24T08:17:56Z,42.805,6.029,13.3009,4.60058,2470.53,2022-2-24T10:19:30Z
2022-02-24T08:20:59Z,42.805,6.029,13.3020,4.60081,2470.53,2022-2-24T10:22:33Z
2022-02-24T08:24:02Z,42.805,6.029,13.3026,4.60078,2470.567,2022-2-24T10:25:36Z
2022-02-24T08:27:05Z,42.805,6.029,13.3013,4.60078,2470.52,2022-2-24T10:28:40Z
2022-02-24T08:30:08Z,42.805,6.029,13.3019,4.60079,2470.53,2022-2-24T10:31:43Z
2022-02-24T08:33:12Z,42.805,6.029,13.3019,4.60077,2470.53,2022-2-24T10:34:46Z
2022-02-24T08:36:15Z,42.805,6.029,13.3024,4.60069,2470.553,2022-2-24T10:37:49Z
2022-02-24T08:39:18Z,42.805,6.029,13.3014,4.60079,2470.53,2022-2-24T10:40:52Z
2022-02-24T08:42:21Z,42.805,6.029,13.3026,4.60064,2470.591,2022-2-24T10:43:55Z
2022-02-24T08:45:24Z,42.805,6.029,13.3012,4.60062,2470.553,2022-2-24T10:46:58Z
2022-02-24T08:48:27Z,42.805,6.029,13.3017,4.60067,2470.567,2022-2-24T10:50:02Z
2022-02-24T08:51:30Z,42.805,6.029,13.3006,4.60057,2470.553,2022-2-24T10:53:05Z
2022-02-24T08:54:33Z,42.805,6.029,13.3015,4.60072,2470.516,2022-2-24T10:56:08Z
2022-02-24T08:57:37Z,42.805,6.029,13.3015,4.60072,2470.544,2022-2-24T10:59:11Z
2022-02-24T09:00:40Z,42.805,6.029,13.3027,4.60064,2470.553,2022-2-24T11:02:14Z
2022-02-24T09:03:43Z,42.805,6.029,13.3015,4.60059,2470.577,2022-2-24T11:05:17Z
2022-02-24T09:06:46Z,42.805,6.029,13.3016,4.60064,2470.553,2022-2-24T11:08:20Z
2022-02-24T09:09:49Z,42.805,6.029,13.3006,4.60055,2470.567,2022-2-24T11:11:23Z
2022-02-24T09:12:52Z,42.805,6.029,13.3012,4.60053,2470.53,2022-2-24T11:14:27Z
2022-02-24T09:15:55Z,42.805,6.029,13.3012,4.60064,2470.577,2022-2-24T11:17:30Z
2022-02-24T09:18:59Z,42.805,6.029,13.3023,4.60062,2470.591,2022-2-24T11:20:33Z
2022-02-24T09:22:02Z,42.805,6.029,13.3014,4.60062,2470.577,2022-2-24T11:23:36Z
2022-02-24T09:25:05Z,42.805,6.029,13.3014,4.60066,2470.567,2022-2-24T11:26:39Z
2022-02-24T09:28:08Z,42.805,6.029,13.3014,4.60061,2470.6,2022-2-24T11:29:42Z
2022-02-24T09:31:11Z,42.805,6.029,13.3009,4.60060,2470.577,2022-2-24T11:32:45Z
2022-02-24T09:34:14Z,42.805,6.029,13.3016,4.60067,2470.6,2022-2-24T11:35:48Z
2022-02-24T09:37:17Z,42.805,6.029,13.3011,4.60059,2470.577,2022-2-24T11:38:52Z
2022-02-24T09:40:20Z,42.805,6.029,13.3009,4.60068,2470.577,2022-2-24T11:41:55Z
2022-02-24T09:43:24Z,42.805,6.029,13.3015,4.60064,2470.614,2022-2-24T11:44:58Z
2022-02-24T09:46:27Z,42.805,6.029,13.3009,4.60061,2470.6,2022-2-24T11:48:01Z
2022-02-24T09:49:30Z,42.805,6.029,13.3009,4.60049,2470.577,2022-2-24T11:51:04Z
2022-02-24T09:52:33Z,42.805,6.029,13.3005,4.60061,2470.591,2022-2-24T11:54:07Z
2022-02-24T09:55:36Z,42.805,6.029,13.3012,4.60067,2470.614,2022-2-24T11:57:10Z
2022-02-24T09:58:39Z,42.805,6.029,13.3003,4.60072,2470.6,2022-2-24T12:00:13Z
2022-02-24T10:01:42Z,42.805,6.029,13.3011,4.60062,2470.6,2022-2-24T12:03:17Z
2022-02-24T10:04:45Z,42.805,6.029,13.3006,4.60049,2470.624,2022-2-24T12:06:20Z
2022-02-24T10:07:49Z,42.805,6.029,13.3015,4.60060,2470.6,2022-2-24T12:09:23Z
2022-02-24T10:10:52Z,42.805,6.029,13.3024,4.60067,2470.614,2022-2-24T12:12:26Z
2022-02-24T10:13:55Z,42.805,6.029,13.3002,4.60043,2470.6,2022-2-24T12:15:29Z
2022-02-24T10:16:58Z,42.805,6.029,13.3014,4.60050,2470.6,2022-2-24T12:18:32Z
2022-02-24T10:20:01Z,42.805,6.029,13.3010,4.60065,2470.624,2022-2-24T12:21:35Z
2022-02-24T10:23:04Z,42.805,6.029,13.3009,4.60049,2470.614,2022-2-24T12:24:39Z
2022-02-24T10:26:07Z,42.805,6.029,13.3008,4.60063,2470.624,2022-2-24T12:27:42Z
2022-02-24T10:29:10Z,42.805,6.029,13.3003,4.60052,2470.6,2022-2-24T12:30:45Z
2022-02-24T10:32:14Z,42.805,6.029,13.3026,4.60064,2470.614,2022-2-24T12:33:48Z
2022-02-24T10:35:17Z,42.805,6.029,13.3017,4.60055,2470.591,2022-2-24T12:36:51Z
2022-02-24T10:38:20Z,42.805,6.029,13.3006,4.60044,2470.614,2022-2-24T12:39:54Z
2022-02-24T10:41:23Z,42.805,6.029,13.3004,4.60048,2470.624,2022-2-24T12:42:57Z
2022-02-24T10:44:26Z,42.805,6.029,13.3014,4.60054,2470.637,2022-2-24T12:46:00Z
2022-02-24T10:47:29Z,42.805,6.029,13.3006,4.60044,2470.624,2022-2-24T12:49:04Z
2022-02-24T10:50:32Z,42.805,6.029,13.3012,4.60060,2470.624,2022-2-24T12:52:07Z
2022-02-24T10:53:35Z,42.805,6.029,13.3021,4.60056,2470.624,2022-2-24T12:55:10Z
2022-02-24T10:56:39Z,42.805,6.029,13.3008,4.60051,2470.6,2022-2-24T12:58:13Z
2022-02-24T10:59:42Z,42.805,6.029,13.3003,4.60052,2470.637,2022-2-24T13:01:16Z
2022-02-24T11:02:45Z,42.805,6.029,13.3020,4.60059,2470.6,2022-2-24T13:04:19Z
2022-02-24T11:05:48Z,42.805,6.029,13.3006,4.60058,2470.646,2022-2-24T13:07:22Z
2022-02-24T11:08:51Z,42.805,6.029,13.3011,4.60059,2470.614,2022-2-24T13:10:25Z
2022-02-24T11:11:54Z,42.805,6.029,13.3020,4.60067,2470.637,2022-2-24T13:13:29Z
2022-02-24T11:14:57Z,42.805,6.029,13.3018,4.60068,2470.6,2022-2-24T13:16:32Z
2022-02-24T11:18:00Z,42.805,6.029,13.3004,4.60048,2470.637,2022-2-24T13:19:35Z
2022-02-24T11:21:04Z,42.805,6.029,13.3015,4.60057,2470.624,2022-2-24T13:22:38Z
2022-02-24T11:24:07Z,42.805,6.029,13.3004,4.60042,2470.624,2022-2-24T13:25:41Z
2022-02-24T11:27:10Z,42.805,6.029,13.3004,4.60049,2470.633,2022-2-24T13:28:44Z
2022-02-24T11:30:13Z,42.805,6.029,13.3014,4.60048,2470.646,2022-2-24T13:31:47Z
2022-02-24T11:33:16Z,42.805,6.029,13.3009,4.60064,2470.624,2022-2-24T13:34:50Z
2022-02-24T11:36:19Z,42.805,6.029,13.3015,4.60062,2470.614,2022-2-24T13:37:54Z
2022-02-24T11:39:22Z,42.805,6.029,13.3014,4.60057,2470.637,2022-2-24T13:40:57Z
2022-02-24T11:42:25Z,42.805,6.029,13.3008,4.60055,2470.637,2022-2-24T13:44:00Z
2022-02-24T11:45:29Z,42.805,6.029,13.3011,4.60070,2470.646,2022-2-24T13:47:03Z
2022-02-24T11:48:32Z,42.805,6.029,13.3011,4.60059,2470.633,2022-2-24T13:50:06Z
2022-02-24T11:51:35Z,42.805,6.029,13.3006,4.60052,2470.646,2022-2-24T13:53:09Z
2022-02-24T11:54:38Z,42.805,6.029,13.3014,4.60054,2470.614,2022-2-24T13:56:12Z
2022-02-24T11:57:41Z,42.805,6.029,13.3021,4.60048,2470.624,2022-2-24T13:59:15Z
2022-02-24T12:00:44Z,42.805,6.029,13.3008,4.60053,2470.661,2022-2-24T14:02:19Z
2022-02-24T12:03:47Z,42.805,6.029,13.3006,4.60062,2470.624,2022-2-24T14:05:22Z
2022-02-24T12:06:51Z,42.805,6.029,13.3014,4.60062,2470.61,2022-2-24T14:08:25Z
2022-02-24T12:09:54Z,42.805,6.029,13.3006,4.60070,2470.633,2022-2-24T14:11:28Z
2022-02-24T12:12:57Z,42.805,6.029,13.3010,4.60050,2470.637,2022-2-24T14:14:31Z
2022-02-24T12:16:00Z,42.805,6.029,13.3015,4.60056,2470.624,2022-2-24T14:17:34Z
2022-02-24T12:19:03Z,42.805,6.029,13.3008,4.60057,2470.624,2022-2-24T14:20:37Z
2022-02-24T12:22:06Z,42.805,6.029,13.3015,4.60062,2470.6,2022-2-24T14:23:40Z
2022-02-24T12:25:09Z,42.805,6.029,13.3020,4.60069,2470.624,2022-2-24T14:26:44Z
2022-02-24T12:28:12Z,42.805,6.029,13.3016,4.60079,2470.637,2022-2-24T14:29:47Z
2022-02-24T12:31:16Z,42.805,6.029,13.3020,4.60065,2470.624,2022-2-24T14:32:50Z
2022-02-24T12:34:19Z,42.805,6.029,13.3015,4.60052,2470.661,2022-2-24T14:35:53Z
2022-02-24T12:37:22Z,42.805,6.029,13.3012,4.60063,2470.6,2022-2-24T14:38:56Z
2022-02-24T12:40:25Z,42.805,6.029,13.3016,4.60065,2470.614,2022-2-24T14:41:59Z
2022-02-24T12:43:28Z,42.805,6.029,13.3009,4.60044,2470.646,2022-2-24T14:45:02Z
2022-02-24T12:46:31Z,42.805,6.029,13.3006,4.60041,2470.637,2022-2-24T14:48:06Z
2022-02-24T12:49:34Z,42.805,6.029,13.3011,4.60044,2470.624,2022-2-24T14:51:09Z
2022-02-24T12:52:37Z,42.805,6.029,13.3012,4.60062,2470.637,2022-2-24T14:54:12Z
2022-02-24T12:55:41Z,42.805,6.029,13.3012,4.60062,2470.637,2022-2-24T14:57:15Z
2022-02-24T12:58:44Z,42.805,6.029,13.3008,4.60062,2470.624,2022-2-24T15:00:18Z
2022-02-24T13:01:47Z,42.805,6.029,13.3011,4.60062,2470.637,2022-2-24T15:03:21Z
2022-02-24T13:04:50Z,42.805,6.029,13.3011,4.60054,2470.637,2022-2-24T15:06:24Z
2022-02-24T13:07:53Z,42.805,6.029,13.3009,4.60046,2470.577,2022-2-24T15:09:27Z
2022-02-24T13:10:56Z,42.805,6.029,13.3017,4.60062,2470.646,2022-2-24T15:12:30Z
2022-02-24T13:13:59Z,42.805,6.029,13.3006,4.60040,2470.624,2022-2-24T15:15:34Z
2022-02-24T13:17:02Z,42.805,6.029,13.3011,4.60056,2470.646,2022-2-24T15:18:37Z
2022-02-24T13:20:06Z,42.805,6.029,13.3018,4.60048,2470.6,2022-2-24T15:21:40Z
2022-02-24T13:23:09Z,42.805,6.029,13.3022,4.60062,2470.614,2022-2-24T15:24:43Z
2022-02-24T13:26:12Z,42.805,6.029,13.3011,4.60049,2470.6,2022-2-24T15:27:46Z
2022-02-24T13:29:15Z,42.805,6.029,13.3006,4.60044,2470.624,2022-2-24T15:30:49Z
2022-02-24T13:32:18Z,42.805,6.029,13.3014,4.60052,2470.624,2022-2-24T15:33:52Z
2022-02-24T13:35:21Z,42.805,6.029,13.3009,4.60060,2470.6,2022-2-24T15:36:56Z
2022-02-24T13:38:24Z,42.805,6.029,13.3010,4.60052,2470.591,2022-2-24T15:39:59Z
2022-02-24T13:41:27Z,42.805,6.029,13.3009,4.60047,2470.577,2022-2-24T15:43:02Z
2022-02-24T13:44:31Z,42.805,6.029,13.3010,4.60047,2470.6,2022-2-24T15:46:05Z
2022-02-24T13:47:34Z,42.805,6.029,13.3015,4.60060,2470.577,2022-2-24T15:49:08Z
2022-02-24T13:50:37Z,42.805,6.029,13.3019,4.60067,2470.637,2022-2-24T15:52:11Z
2022-02-24T13:53:40Z,42.805,6.029,13.3014,4.60064,2470.6,2022-2-24T15:55:14Z
2022-02-24T13:56:43Z,42.805,6.029,13.3020,4.60065,2470.6,2022-2-24T15:58:17Z
2022-02-24T13:59:46Z,42.805,6.029,13.3020,4.60075,2470.591,2022-2-24T16:01:21Z
2022-02-24T14:02:49Z,42.805,6.029,13.3016,4.60059,2470.6,2022-2-24T16:04:24Z
2022-02-24T14:05:52Z,42.805,6.029,13.3018,4.60065,2470.591,2022-2-24T16:07:27Z
2022-02-24T14:08:56Z,42.805,6.029,13.3036,4.60076,2470.614,2022-2-24T16:10:30Z
2022-02-24T14:11:59Z,42.805,6.029,13.3018,4.60067,2470.591,2022-2-24T16:13:33Z
2022-02-24T14:15:02Z,42.805,6.029,13.3021,4.60062,2470.591,2022-2-24T16:16:36Z
2022-02-24T14:18:05Z,42.805,6.029,13.3016,4.60072,2470.614,2022-2-24T16:19:39Z
2022-02-24T14:21:08Z,42.805,6.029,13.3021,4.60063,2470.6,2022-2-24T16:22:42Z
2022-02-24T14:24:11Z,42.805,6.029,13.3014,4.60073,2470.637,2022-2-24T16:25:46Z
2022-02-24T14:27:14Z,42.805,6.029,13.3014,4.60054,2470.567,2022-2-24T16:28:49Z
2022-02-24T14:30:17Z,42.805,6.029,13.3009,4.60060,2470.614,2022-2-24T16:31:52Z
2022-02-24T14:33:21Z,42.805,6.029,13.3009,4.60051,2470.591,2022-2-24T16:34:55Z
2022-02-24T14:36:24Z,42.805,6.029,13.3019,4.60070,2470.6,2022-2-24T16:37:58Z
2022-02-24T14:39:27Z,42.805,6.029,13.3019,4.60069,2470.577,2022-2-24T16:41:01Z
2022-02-24T14:42:30Z,42.805,6.029,13.3012,4.60058,2470.577,2022-2-24T16:44:04Z
2022-02-24T14:45:33Z,42.805,6.029,13.3023,4.60062,2470.567,2022-2-24T16:47:07Z
2022-02-24T14:48:36Z,42.805,6.029,13.3016,4.60083,2470.624,2022-2-24T16:50:11Z
2022-02-24T14:51:39Z,42.805,6.029,13.3006,4.60054,2470.577,2022-2-24T16:53:14Z
2022-02-24T14:54:43Z,42.805,6.029,13.3017,4.60079,2470.553,2022-2-24T16:56:17Z
2022-02-24T14:57:46Z,42.805,6.029,13.3009,4.60084,2470.577,2022-2-24T16:59:20Z
2022-02-24T15:00:49Z,42.805,6.029,13.3007,4.60081,2470.577,2022-2-24T17:02:23Z
2022-02-24T15:03:52Z,42.805,6.029,13.3025,4.60064,2470.577,2022-2-24T17:05:26Z
2022-02-24T15:06:55Z,42.805,6.029,13.3022,4.60069,2470.553,2022-2-24T17:08:29Z
2022-02-24T15:09:58Z,42.805,6.029,13.3011,4.60065,2470.567,2022-2-24T17:11:32Z
2022-02-24T15:13:01Z,42.805,6.029,13.3014,4.60067,2470.577,2022-2-24T17:14:36Z